FW4141 Weather Reports


time (UTC)temp
C
wind
direction
speed
KPH
gust
KPH
rain 1hr
cm
rain 24hr
cm
rain mn
cm
humidity
%
barometer
mb
20260502170118 26 0.0 0.0 0.00 0.00 0.00 24 1012.1
20260502164044 26 0.0 0.0 0.00 0.00 0.00 23 1012.2
20260502163034 26 0.0 0.0 0.00 0.00 0.00 20 1012.3
20260502162112 26 0.0 0.0 0.00 0.00 0.00 21 1012.5
20260502161031 27 0.0 0.0 0.00 0.00 0.00 13 1012.6
20260502152110 27 0.0 0.0 0.00 0.00 0.00 21 1013.1
20260502151113 27 0.0 0.0 0.00 0.00 0.00 13 1013.2
20260502150113 27 0.0 0.0 0.00 0.00 0.00 13 1013.3
20260502123131 27 0.0 0.0 0.00 0.00 0.00 21 1014.6
20260502122104 27 0.0 0.0 0.00 0.00 0.00 20 1014.8
20260502121114 27 0.0 0.0 0.00 0.00 0.00 15 1014.9
20260502115055 27 0.0 0.0 0.00 0.00 0.00 14 1015.2
20260502114050 27 0.0 0.0 0.00 0.00 0.00 13 1015.2
20260502113046 27 0.0 0.0 0.00 0.00 0.00 21 1015.3
20260502112043 27 0.0 0.0 0.00 0.00 0.00 21 1015.3
20260502111039 27 0.0 0.0 0.00 0.00 0.00 21 1015.4
20260502110037 27 0.0 0.0 0.00 0.00 0.00 21 1015.5
20260502105033 26 0.0 0.0 0.00 0.00 0.00 21 1015.6
20260502104051 26 0.0 0.0 0.00 0.00 0.00 23 1015.8
20260502103026 26 0.0 0.0 0.00 0.00 0.00 22 1015.7
20260502102022 26 0.0 1.6 0.00 0.00 0.00 22 1016.0
20260502101021 26 0.0 0.0 0.00 0.00 0.00 23 1016.2
20260502100136 25 0.0 0.0 0.00 0.00 0.00 23 1016.2
20260502091057 25 0.0 0.0 0.00 0.00 0.00 25 1016.6
20260502071135 17 0.0 0.0 0.00 0.00 0.00 45 1017.2
20260502070112 16 0.0 0.0 0.00 0.00 0.00 51 1017.2
20260502065128 16 0.0 0.0 0.00 0.00 0.00 51 1017.2
20260502064107 16 0.0 0.0 0.00 0.00 0.00 52 1017.2
20260502063113 15 0.0 0.0 0.00 0.00 0.00 54 1017.4
20260502062057 15 0.0 0.0 0.00 0.00 0.00 55 1017.4
20260502061056 15 0.0 0.0 0.00 0.00 0.00 52 1017.4
20260502060133 16 0.0 0.0 0.00 0.00 0.00 51 1017.4
20260502055109 16 0.0 0.0 0.00 0.00 0.00 54 1017.3
20260502054104 16 0.0 0.0 0.00 0.00 0.00 57 1017.3
20260502053039 15 0.0 0.0 0.00 0.00 0.00 61 1017.3
20260502052134 15 0.0 0.0 0.00 0.00 0.00 60 1017.3
20260502051031 16 0.0 0.0 0.00 0.00 0.00 62 1017.3
20260502050030 15 0.0 0.0 0.00 0.00 0.00 69 1017.3
20260502045025 13 0.0 0.0 0.00 0.00 0.00 77 1017.3
20260502044022 11 0.0 0.0 0.00 0.00 0.00 87 1017.3
20260502043017 8 0.0 0.0 0.00 0.00 0.00 87 1017.4
20260502042115 6 0.0 0.0 0.00 0.00 0.00 90 1017.3
20260502041112 5 0.0 0.0 0.00 0.00 0.00 89 1017.4
20260502040110 5 0.0 0.0 0.00 0.00 0.00 88 1017.3
20260502035105 5 0.0 0.0 0.00 0.00 0.00 88 1017.2
20260502034059 5 0.0 0.0 0.00 0.00 0.00 87 1017.4
20260502033058 5 0.0 0.0 0.00 0.00 0.00 86 1017.4
20260502032112 5 0.0 0.0 0.00 0.00 0.00 86 1017.6
20260502031109 5 0.0 0.0 0.00 0.00 0.00 86 1017.5
20260502030046 5 0.0 0.0 0.00 0.00 0.00 86 1017.5
20260502025041 5 0.0 0.0 0.00 0.00 0.00 87 1017.6
20260502024057 5 0.0 0.0 0.00 0.00 0.00 87 1017.6
20260502023034 6 0.0 0.0 0.00 0.00 0.00 87 1017.6
20260502022029 6 0.0 0.0 0.00 0.00 0.00 87 1017.7
20260502021025 6 0.0 0.0 0.00 0.00 0.00 87 1017.7
20260502020021 6 0.0 0.0 0.00 0.00 0.00 86 1017.9
20260502015018 6 0.0 0.0 0.00 0.00 0.00 85 1017.8
20260502014115 6 0.0 0.0 0.00 0.00 0.00 84 1017.9
20260502013113 6 0.0 0.0 0.00 0.00 0.00 84 1018.0
20260502012107 6 0.0 0.0 0.00 0.00 0.00 84 1018.0
20260502011103 6 0.0 0.0 0.00 0.00 0.00 83 1018.0
20260502010100 6 0.0 0.0 0.00 0.00 0.00 83 1018.0
20260502005058 6 0.0 0.0 0.00 0.00 0.00 82 1018.0
20260502004053 6 0.0 0.0 0.00 0.00 0.00 82 1018.0
20260502003050 7 0.0 0.0 0.00 0.00 0.00 81 1018.1
20260502002047 7 0.0 0.0 0.00 0.00 0.00 81 1018.2
20260502001042 7 0.0 0.0 0.00 0.00 0.00 76 1018.2
20260502000101 8 0.0 0.0 0.00 0.00 0.00 76 1018.3
20260501235036 8 0.0 0.0 0.00 0.00 0.00 78 1018.3
20260501234034 9 0.0 0.0 0.00 0.00 0.00 80 1018.3
20260501233028 10 0.0 0.0 0.00 0.00 0.00 80 1018.3
20260501232046 10 0.0 0.0 0.00 0.00 0.00 78 1018.5
20260501231021 9 0.0 0.0 0.00 0.00 0.00 76 1018.5
20260501230034 9 0.0 0.0 0.00 0.00 0.00 74 1018.6
20260501225118 9 0.0 0.0 0.00 0.00 0.00 74 1018.6
20260501224111 10 0.0 0.0 0.00 0.00 0.00 76 1018.6
20260501223112 10 0.0 0.0 0.00 0.00 0.00 77 1018.6
20260501222216 10 0.0 0.0 0.00 0.00 0.00 77 1018.6
20260501221124 10 0.0 0.0 0.00 0.00 0.00 76 1018.6
20260501220117 10 0.0 0.0 0.00 0.00 0.00 75 1018.7
20260501215052 10 0.0 0.0 0.00 0.00 0.00 75 1018.8
20260501214051 10 0.0 0.0 0.00 0.00 0.00 74 1018.7
20260501213046 10 0.0 0.0 0.00 0.00 0.00 73 1018.8
20260501212043 10 0.0 0.0 0.00 0.00 0.00 72 1018.7
20260501211134 10 0.0 0.0 0.00 0.00 0.00 71 1018.8
20260501210035 11 0.0 0.0 0.00 0.00 0.00 71 1018.9
20260501205059 11 0.0 0.0 0.00 0.00 0.00 70 1018.9
20260501204033 11 0.0 0.0 0.00 0.00 0.00 69 1019.0
20260501203057 12 0.0 0.0 0.00 0.00 0.00 67 1018.9
20260501202135 12 0.0 0.0 0.00 0.00 0.00 62 1019.0
20260501201104 12 0.0 0.0 0.00 0.00 0.00 61 1019.0
20260501200024 12 0.0 0.0 0.00 0.00 0.00 60 1019.2
20260501195238 13 0.0 0.0 0.00 0.00 0.00 58 1019.2
20260501194136 13 0.0 0.0 0.00 0.00 0.00 57 1019.1
20260501193108 13 0.0 0.0 0.00 0.00 0.00 55 1019.0
20260501192125 13 0.0 0.0 0.00 0.00 0.00 54 1019.0
20260501191108 14 0.0 0.0 0.00 0.00 0.00 53 1019.0
20260501190106 15 0.0 0.0 0.00 0.00 0.00 52 1018.8
20260501185111 15 0.0 0.0 0.00 0.00 0.00 51 1018.9
20260501184106 16 0.0 0.0 0.00 0.00 0.00 50 1018.7
20260501183107 17 0.0 0.0 0.00 0.00 0.00 46 1018.7
20260501182041 18 0.0 0.0 0.00 0.00 0.00 39 1018.7
20260501181058 19 0.0 0.0 0.00 0.00 0.00 34 1018.6